Hourly Data Report for October 03, 2015

All times are specified in Local Standard Time (LST). Add 1 hour to adjust for Daylight Saving Time where and when it is observed.

RANKIN INLET A
NUNAVUT

62°48'38.000" N
92°06'53.000" W
32.30 m
2303405
71083
YRT

Download Data

Hourly Data (October 2015)
Hourly Data Report for October 3, 2015
Temp Definition
°C
Dew Point Temp Definition
°C
Rel Hum Definition
%
Wind Dir Definition
10's deg

Wind Spd Definition
km/h
Visibility Definition
km
Stn Press Definition
kPa
Hmdx Definition


Wind Chill Definition


Weather Definition


TIME
00:00 Legend Double Dagger 6.2 5.5 95 14 19 1.6 101.31     Fog
01:00 Legend Double Dagger 7.4 5.2 86 22 17 16.1 101.23     LegendNANA
02:00 Legend Double Dagger 7.7 5.5 86 21 30 24.1 101.19     LegendNANA
03:00 Legend Double Dagger 7.7 5.5 86 21 31 16.1 101.16     Cloudy
04:00 Legend Double Dagger 7.5 5.5 87 21 27 24.1 101.15     LegendNANA
05:00 Legend Double Dagger 7.1 5.1 87 21 31 24.1 101.09     LegendNANA
06:00 Legend Double Dagger 6.9 5.2 89 22 24 24.1 101.11     Mostly Cloudy
07:00 Legend Double Dagger 7.4 5.7 89 24 19 24.1 101.12     LegendNANA
08:00 Legend Double Dagger 6.8 5.8 93 27 15 24.1 101.11     LegendNANA
09:00 Legend Double Dagger 4.7 4.0 95 30 16 9.7 101.13     Fog
10:00 Legend Double Dagger 3.2 2.8 97 32 24 0.4 101.21     Fog
11:00 Legend Double Dagger 2.8 2.4 97 34 41 1.6 101.28     Fog
12:00 Legend Double Dagger 2.5 1.8 95 35 43 4.8 101.42     Fog
13:00 Legend Double Dagger 2.0 0.8 92 36 44 6.4 101.59     Fog
14:00 Legend Double Dagger 2.0 0.4 89 36 45 9.7 101.69     Fog
15:00 Legend Double Dagger 1.9 -0.2 86 1 45 16.1 101.83     Cloudy
16:00 Legend Double Dagger 1.6 -0.8 84 1 46 16.1 101.99     LegendNANA
17:00 Legend Double Dagger 1.6 -1.1 82 1 39 24.1 102.15     LegendNANA
18:00 Legend Double Dagger 0.9 -1.8 82 1 37 24.1 102.29     Mostly Cloudy
19:00 Legend Double Dagger 0.3 -1.9 85 1 32 24.1 102.35     LegendNANA
20:00 Legend Double Dagger 0.0 -2.1 86 36 30 24.1 102.50   -6 LegendNANA
21:00 Legend Double Dagger -0.3 -2.2 87 36 30 24.1 102.56   -7 Mainly Clear
22:00 Legend Double Dagger -1.0 -2.7 88 1 23 24.1 102.61   -7 LegendNANA
23:00 Legend Double Dagger -1.2 -2.8 89 36 22 24.1 102.66   -7 LegendNANA

Notes on Data Quality.

Legend

  • E = Estimated
  • M = Missing
  • NA = Not Available
  • ‡ = Partner data that is not subject to review by the National Climate Archives
Date modified: